ORBCOMM FM117 [+] (41188 NORAD) Tracking and Keplerian Element Data

This shows tracking and keplerian element data for the satellite.

Feedback or suggestion? Click here.




ElementValue
Catalog41188
NameORBCOMM FM117 [+]
Epoch Orbit16119
Epoch Day352.13521059
Epoch Year2018
RAAN106.5441
Inclination47.001
Eccentricity0.0002694
Argument of Perigee260.6414
Mean Anonmoly99.4166
Mean Motion14.54748772
Decay Rate-9.8E-07
L11 41188U 15081K 18352.13521059 -.00000098 00000-0 15584-4 0 9997
L22 41188 47.0010 106.5441 0002694 260.6414 99.4166 14.54748772161193

Live tracking and technical data element details for ORBCOMM FM117 [+] (NORAD 41188). ORBCOMM FM117 [+] can be tracked NOW for your location showing map with azimuth and elevation plus other details from your city location.

Track the satellite on the map from your city or location and see movement details for azimuth, elevation, latitude, longitude, range, height, and movement on the map or in text.







IsCatalogInMostPopularTable: catalog: 41188, numindb: 123
Update: records affected: 1



GetName: 41188 ORBCOMM FM117 [+]

Hit Count: updated at: Wed, 19 Dec 2018 16:12:50 GMT